The Dalles, WA

1:00 PM PDT on August 19, 2019 (GMT -0700)
Columbia Gorge Regional-The Dalles

Weather History for KDLS - July, 2019

Change the Weather History Date:

Thursday, July 18, 2019

  Actual Average Record
Temperature  
Mean Temperature 70 °F -  
Max Temperature 77 °F 89 °F 107 °F (1959)
Min Temperature 64 °F 61 °F 48 °F (1996)
Cooling Degree Days 4    
Growing Degree Days 20 (Base 50)    
Moisture  
Dew Point 48 °F    
Average Humidity 49    
Maximum Humidity 73    
Minimum Humidity 31    
Precipitation  
Precipitation 0.00 in - - ()
Sea Level Pressure  
Sea Level Pressure 29.94 in    
Wind  
Wind Speed 16 mph (WNW)    
Max Wind Speed 29 mph    
Max Gust Speed 38 mph    
Visibility 10 miles    
Events      
Averages and records for this station are not official NWS values.
T = Trace of Precipitation, MM = Missing Value Source: NWS Daily Summary

Daily Weather History Graph

Daily Weather History Graph

Search for Another Location

Airport or City:

Astronomy

Jul. 18, 2019 Rise Set
Actual Time 5:32 AM PDT 8:48 PM PDT
Civil Twilight 4:56 AM PDT 9:24 PM PDT
Nautical Twilight 4:09 AM PDT 10:11 PM PDT
Astronomical Twilight 3:10 AM PDT 11:09 PM PDT
Moon 10:13 PM PDT (7/18) 7:09 AM PDT (7/18)
Length of Visible Light 16h 27m
Length of Day
15h 15m
Waning Gibbous, 97% of the Moon is Illuminated
Jul 18
Waning Gibbous
Jul 24
Last Quarter
Jul 31
New
Aug 7
First Quarter
Aug 15
Full

Hourly Weather History & Observations

Time (PDT) Temp. Dew Point Humidity Pressure Visibility Wind Dir Wind Speed Gust Speed Precip Events Conditions
12:53 AM 66.9 °F 57.9 °F 73% 29.88 in 10.0 mi WNW 13.8 mph - N/A   Clear
1:53 AM 66.9 °F 57.9 °F 73% 29.88 in 10.0 mi WNW 12.7 mph - N/A   Scattered Clouds
2:53 AM 68.0 °F 57.9 °F 70% 29.88 in 10.0 mi WNW 10.4 mph - N/A   Overcast
3:53 AM 66.9 °F 57.0 °F 70% 29.89 in 10.0 mi WNW 15.0 mph - N/A   Clear
4:53 AM 64.9 °F 55.0 °F 70% 29.90 in 10.0 mi WNW 15.0 mph - N/A   Clear
5:53 AM 64.9 °F 53.1 °F 65% 29.92 in 10.0 mi West 20.7 mph - N/A   Clear
6:53 AM 64.0 °F 51.1 °F 63% 29.95 in 10.0 mi West 12.7 mph - N/A   Clear
7:53 AM 64.9 °F 48.9 °F 56% 29.97 in 10.0 mi WNW 17.3 mph 24.2 mph N/A   Clear
8:53 AM 66.0 °F 48.0 °F 52% 29.99 in 10.0 mi WNW 18.4 mph 27.6 mph N/A   Mostly Cloudy
9:53 AM 70.0 °F 48.9 °F 47% 29.98 in 10.0 mi WNW 17.3 mph 29.9 mph N/A   Scattered Clouds
10:53 AM 72.0 °F 48.0 °F 43% 29.99 in 10.0 mi NW 18.4 mph 31.1 mph N/A   Clear
11:53 AM 73.9 °F 45.0 °F 35% 29.98 in 10.0 mi WNW 18.4 mph 29.9 mph N/A   Clear
12:53 PM 73.9 °F 46.0 °F 37% 29.98 in 10.0 mi NW 17.3 mph 26.5 mph N/A   Clear
1:53 PM 75.0 °F 45.0 °F 34% 29.96 in 10.0 mi NW 20.7 mph 27.6 mph N/A   Clear
2:53 PM 75.9 °F 44.1 °F 32% 29.96 in 10.0 mi NW 23.0 mph 33.4 mph N/A   Clear
3:53 PM 75.9 °F 44.1 °F 32% 29.96 in 10.0 mi WNW 19.6 mph 31.1 mph N/A   Clear
4:53 PM 75.9 °F 43.0 °F 31% 29.95 in 10.0 mi WNW 26.5 mph 36.8 mph N/A   Clear
5:53 PM 75.0 °F 43.0 °F 32% 29.93 in 10.0 mi West 28.8 mph 38.0 mph N/A   Clear
6:53 PM 73.9 °F 43.0 °F 33% 29.92 in 10.0 mi West 21.9 mph 33.4 mph N/A   Clear
7:53 PM 72.0 °F 43.0 °F 35% 29.93 in 10.0 mi WNW 13.8 mph 28.8 mph N/A   Clear
8:53 PM 69.1 °F 44.1 °F 40% 29.94 in 10.0 mi West 18.4 mph 27.6 mph N/A   Clear
9:53 PM 66.9 °F 45.0 °F 45% 29.96 in 10.0 mi West 10.4 mph 18.4 mph N/A   Clear
10:53 PM 64.9 °F 46.0 °F 50% 29.97 in 10.0 mi West 13.8 mph 17.3 mph N/A   Clear
11:53 PM 64.0 °F 46.0 °F 52% 29.98 in 10.0 mi West 15.0 mph - N/A   Clear